User: anonymous   Login
Location: Unspecified
(0.0000°N, 0.0000°E)
Time: 14:12:10
(UTC+00:00)
Language:

EUTE 21B - Orbit

View from above orbital plane
View from above orbital plane
View from above satellite
View from above satellite

Ground track
Ground track

The orbit data is extracted from the following two-line orbital elements,

1 38992U 12062B   19047.89992389 +.00000119 +00000-0 +00000-0 0  9991
2 38992 000.0667 005.5904 0002375 317.3351 169.1861 01.00270311023007
Epoch (UTC): 16 February 2019 21:35:53
Eccentricity: 0.0002375
inclination: 0.0667°
perigee height: 35776 km
apogee height: 35796 km
right ascension of ascending node: 5.5904°
argument of perigee: 317.3351°
revolutions per day: 1.00270311
mean anomaly at epoch: 169.1861°
orbit number at epoch: 2300

The dashed part of the orbit path shows where the satellite is in the earth's shadow,  

DLR